Location: Unspecified
(40.7945°N, 111.1337°W)
Time: 17:53:52
(UTC-06:00)

Resurs 1-4 Rocket - Pass Details

Date: 24 March 2019
Orbit: 800 x 814 km, 98.6° (Epoch: 12 October)

Event Time Altitude Azimuth Distance (km) Brightness Sun altitude
Rises 03:24:38 0° 11° (N) 3,332 6.0 -40.5°
Reaches altitude 10° 03:26:59 10° 10° (N) 2,395 5.1 -40.3°
Enters shadow 03:28:13 18° 8° (N) 1,916 4.5 -40.1°
